Precipitable_Water
0.33 0.34 0.34 0.35 0.35 0.35 0.35 0.35 0.35 0.35 0.35 0.35 0.34 0.34 0.34 0.34 0.34 0.33 0.33 0.33 0.33 0.33 0.33 0.33 0.33 0.33 0.33 0.33 0.33 0.32 0.32 0.32 0.32 0.32 0.31 0.31 0.30 0.30 0.29 0.29 0.28 0.26 0.26 0.27 0.28 0.28 0.27 0.27 0.27 0.26 0.27 0.27 0.27 0.27 0.28 0.29 0.28 0.28 0.28 0.29 0.29 0.29 0.29
0.36 0.36 0.35 0.36 0.36 0.37 0.37 0.38 0.37 0.38 0.37 0.37 0.36 0.36 0.37 0.36 0.35 0.34 0.33 0.33 0.33 0.33 0.33 0.33 0.33 0.33 0.33 0.34 0.33 0.33 0.33 0.33 0.32 0.32 0.32 0.31 0.31 0.30 0.30 0.30 0.29 0.28 0.27 0.27 0.28 0.28 0.28 0.27 0.27 0.26 0.27 0.26 0.26 0.27 0.27 0.28 0.28 0.28 0.28 0.28 0.28 0.28 0.28
0.38 0.38 0.39 0.38 0.38 0.38 0.38 0.39 0.39 0.39 0.39 0.38 0.37 0.37 0.37 0.37 0.37 0.36 0.35 0.34 0.34 0.34 0.34 0.34 0.33 0.33 0.34 0.34 0.33 0.33 0.33 0.34 0.33 0.33 0.32 0.32 0.32 0.31 0.31 0.31 0.30 0.29 0.28 0.28 0.28 0.28 0.28 0.27 0.27 0.26 0.26 0.27 0.27 0.27 0.27 0.27 0.28 0.27 0.27 0.27 0.27 0.27 0.27
0.38 0.39 0.40 0.40 0.40 0.40 0.39 0.40 0.40 0.40 0.40 0.39 0.39 0.38 0.37 0.37 0.37 0.37 0.36 0.36 0.35 0.35 0.35 0.34 0.34 0.34 0.34 0.34 0.34 0.34 0.34 0.34 0.34 0.34 0.33 0.33 0.33 0.32 0.32 0.31 0.31 0.31 0.30 0.29 0.28 0.29 0.28 0.28 0.27 0.27 0.27 0.27 0.26 0.26 0.26 0.26 0.27 0.27 0.26 0.26 0.26 0.26 0.26
0.36 0.36 0.36 0.37 0.37 0.38 0.39 0.39 0.39 0.39 0.39 0.40 0.40 0.39 0.38 0.38 0.38 0.37 0.37 0.37 0.36 0.36 0.36 0.36 0.35 0.35 0.35 0.35 0.34 0.34 0.34 0.34 0.34 0.34 0.34 0.33 0.33 0.32 0.32 0.32 0.31 0.31 0.31 0.30 0.29 0.29 0.29 0.29 0.28 0.28 0.27 0.26 0.26 0.25 0.25 0.26 0.26 0.26 0.26 0.26 0.26 0.26 0.25
0.32 0.33 0.33 0.33 0.34 0.34 0.35 0.36 0.37 0.37 0.37 0.37 0.37 0.38 0.38 0.37 0.37 0.37 0.37 0.36 0.36 0.36 0.36 0.35 0.35 0.35 0.35 0.35 0.34 0.34 0.34 0.34 0.34 0.34 0.34 0.33 0.33 0.33 0.32 0.31 0.31 0.31 0.30 0.29 0.29 0.29 0.29 0.28 0.28 0.27 0.27 0.27 0.26 0.25 0.25 0.25 0.25 0.26 0.25 0.25 0.24 0.24 0.24
0.29 0.29 0.30 0.30 0.31 0.31 0.32 0.32 0.33 0.34 0.35 0.35 0.36 0.35 0.35 0.36 0.36 0.36 0.36 0.36 0.36 0.36 0.36 0.35 0.35 0.35 0.35 0.34 0.34 0.34 0.34 0.34 0.34 0.34 0.33 0.33 0.33 0.32 0.31 0.31 0.30 0.30 0.29 0.29 0.28 0.28 0.28 0.28 0.28 0.27 0.26 0.26 0.26 0.25 0.25 0.24 0.24 0.23 0.24 0.24 0.24 0.24 0.24
0.26 0.26 0.27 0.27 0.27 0.28 0.29 0.29 0.30 0.30 0.31 0.32 0.33 0.34 0.34 0.35 0.34 0.34 0.35 0.35 0.35 0.35 0.35 0.35 0.35 0.35 0.35 0.34 0.34 0.34 0.34 0.34 0.33 0.33 0.32 0.33 0.32 0.32 0.31 0.30 0.29 0.29 0.28 0.28 0.27 0.27 0.27 0.27 0.27 0.27 0.27 0.26 0.25 0.24 0.23 0.24 0.24 0.23 0.23 0.24 0.24 0.24 0.23
0.24 0.24 0.24 0.25 0.25 0.25 0.26 0.26 0.27 0.27 0.28 0.29 0.31 0.32 0.32 0.33 0.33 0.33 0.33 0.33 0.34 0.34 0.34 0.34 0.34 0.34 0.34 0.34 0.34 0.34 0.34 0.34 0.33 0.32 0.31 0.32 0.32 0.31 0.30 0.29 0.29 0.28 0.27 0.27 0.26 0.26 0.27 0.26 0.26 0.26 0.25 0.25 0.24 0.23 0.23 0.24 0.24 0.23 0.23 0.23 0.23 0.23 0.24
0.22 0.22 0.22 0.22 0.22 0.23 0.23 0.24 0.25 0.25 0.27 0.28 0.29 0.29 0.30 0.30 0.31 0.31 0.31 0.31 0.31 0.32 0.32 0.33 0.33 0.33 0.33 0.33 0.33 0.33 0.33 0.33 0.33 0.32 0.32 0.31 0.31 0.30 0.29 0.28 0.27 0.27 0.27 0.26 0.25 0.25 0.25 0.24 0.25 0.25 0.25 0.24 0.24 0.25 0.24 0.23 0.23 0.22 0.22 0.22 0.22 0.22 0.23
0.19 0.20 0.20 0.20 0.20 0.20 0.21 0.22 0.22 0.24 0.26 0.26 0.27 0.27 0.27 0.27 0.28 0.29 0.29 0.29 0.29 0.29 0.30 0.31 0.31 0.32 0.32 0.32 0.32 0.32 0.32 0.32 0.32 0.32 0.31 0.31 0.31 0.30 0.29 0.28 0.27 0.26 0.26 0.25 0.25 0.25 0.25 0.24 0.24 0.25 0.25 0.25 0.24 0.24 0.24 0.23 0.23 0.22 0.22 0.21 0.20 0.20 0.22
0.18 0.18 0.18 0.18 0.18 0.18 0.19 0.19 0.20 0.22 0.23 0.24 0.25 0.25 0.25 0.26 0.25 0.25 0.26 0.27 0.27 0.27 0.28 0.28 0.29 0.30 0.30 0.31 0.31 0.31 0.31 0.31 0.31 0.31 0.31 0.30 0.30 0.30 0.29 0.29 0.28 0.26 0.26 0.25 0.24 0.24 0.24 0.24 0.24 0.24 0.25 0.24 0.24 0.23 0.23 0.22 0.22 0.22 0.21 0.21 0.20 0.20 0.20
0.17 0.17 0.17 0.17 0.17 0.17 0.18 0.18 0.19 0.21 0.22 0.22 0.23 0.23 0.23 0.22 0.22 0.23 0.23 0.24 0.24 0.25 0.25 0.26 0.26 0.27 0.28 0.29 0.29 0.29 0.30 0.29 0.29 0.30 0.30 0.29 0.29 0.29 0.29 0.28 0.29 0.28 0.27 0.26 0.25 0.24 0.24 0.24 0.24 0.24 0.24 0.25 0.24 0.23 0.22 0.21 0.21 0.21 0.21 0.21 0.20 0.20 0.21
0.16 0.16 0.16 0.16 0.16 0.16 0.17 0.17 0.18 0.19 0.20 0.21 0.21 0.22 0.21 0.20 0.20 0.21 0.21 0.22 0.22 0.23 0.23 0.24 0.24 0.24 0.25 0.26 0.27 0.27 0.27 0.27 0.27 0.27 0.27 0.27 0.27 0.28 0.28 0.28 0.28 0.28 0.27 0.26 0.25 0.24 0.23 0.24 0.25 0.24 0.24 0.25 0.24 0.22 0.21 0.21 0.20 0.21 0.20 0.20 0.20 0.21 0.21
0.14 0.15 0.15 0.15 0.15 0.16 0.16 0.16 0.17 0.18 0.19 0.20 0.20 0.21 0.20 0.19 0.19 0.19 0.19 0.20 0.20 0.21 0.21 0.22 0.22 0.22 0.23 0.23 0.24 0.25 0.26 0.25 0.25 0.25 0.25 0.25 0.25 0.26 0.26 0.27 0.27 0.27 0.27 0.26 0.26 0.25 0.25 0.25 0.25 0.25 0.24 0.24 0.24 0.23 0.23 0.22 0.21 0.21 0.20 0.20 0.21 0.20 0.20
0.13 0.13 0.13 0.14 0.14 0.14 0.14 0.15 0.16 0.17 0.18 0.19 0.19 0.20 0.19 0.18 0.18 0.18 0.18 0.18 0.19 0.19 0.20 0.20 0.20 0.21 0.21 0.21 0.22 0.23 0.24 0.24 0.24 0.24 0.23 0.23 0.24 0.24 0.25 0.25 0.26 0.27 0.27 0.26 0.26 0.26 0.25 0.25 0.25 0.25 0.24 0.24 0.24 0.23 0.23 0.22 0.21 0.21 0.20 0.19 0.18 0.17 0.18
0.13 0.13 0.12 0.12 0.12 0.12 0.13 0.13 0.14 0.15 0.16 0.18 0.18 0.18 0.18 0.17 0.17 0.17 0.17 0.17 0.17 0.18 0.18 0.18 0.19 0.19 0.20 0.20 0.20 0.21 0.22 0.22 0.22 0.22 0.22 0.21 0.21 0.22 0.22 0.23 0.24 0.26 0.26 0.26 0.26 0.25 0.26 0.25 0.25 0.25 0.25 0.24 0.24 0.23 0.22 0.21 0.19 0.18 0.19 0.17 0.16 0.17 0.17
0.12 0.12 0.12 0.12 0.12 0.12 0.12 0.12 0.12 0.13 0.14 0.15 0.16 0.16 0.16 0.16 0.16 0.15 0.15 0.16 0.16 0.17 0.17 0.18 0.18 0.18 0.19 0.19 0.19 0.20 0.21 0.21 0.21 0.20 0.20 0.20 0.20 0.20 0.20 0.21 0.22 0.23 0.23 0.24 0.24 0.24 0.24 0.24 0.24 0.24 0.24 0.24 0.24 0.23 0.22 0.20 0.18 0.18 0.18 0.17 0.16 0.16 0.16
0.11 0.11 0.11 0.11 0.11 0.12 0.11 0.11 0.11 0.11 0.13 0.13 0.14 0.14 0.14 0.14 0.13 0.13 0.13 0.13 0.14 0.15 0.15 0.16 0.16 0.16 0.17 0.18 0.18 0.19 0.20 0.20 0.20 0.20 0.20 0.19 0.19 0.18 0.18 0.19 0.20 0.20 0.20 0.21 0.21 0.22 0.23 0.23 0.23 0.23 0.23 0.23 0.23 0.23 0.22 0.21 0.19 0.19 0.17 0.16 0.16 0.16 0.16
0.11 0.10 0.10 0.11 0.11 0.11 0.11 0.10 0.10 0.10 0.11 0.12 0.12 0.13 0.13 0.12 0.12 0.11 0.12 0.12 0.12 0.12 0.12 0.13 0.13 0.13 0.13 0.14 0.15 0.17 0.18 0.18 0.19 0.19 0.19 0.19 0.18 0.17 0.17 0.19 0.20 0.20 0.20 0.19 0.19 0.20 0.20 0.20 0.21 0.22 0.22 0.22 0.22 0.22 0.21 0.20 0.20 0.19 0.18 0.17 0.16 0.16 0.15
0.10 0.10 0.10 0.10 0.10 0.10 0.10 0.10 0.09 0.09 0.10 0.10 0.11 0.11 0.11 0.11 0.11 0.11 0.11 0.11 0.11 0.11 0.11 0.11 0.11 0.11 0.11 0.12 0.12 0.13 0.14 0.16 0.17 0.18 0.18 0.18 0.18 0.18 0.18 0.19 0.19 0.19 0.19 0.19 0.19 0.19 0.19 0.19 0.19 0.20 0.20 0.20 0.20 0.20 0.20 0.20 0.19 0.19 0.18 0.17 0.16 0.15 0.15
0.10 0.10 0.10 0.10 0.10 0.09 0.09 0.09 0.09 0.09 0.09 0.09 0.09 0.10 0.10 0.10 0.10 0.11 0.11 0.10 0.09 0.09 0.09 0.10 0.10 0.10 0.10 0.11 0.12 0.13 0.14 0.14 0.15 0.17 0.16 0.17 0.17 0.17 0.17 0.17 0.18 0.18 0.18 0.18 0.18 0.18 0.18 0.18 0.18 0.18 0.18 0.18 0.19 0.19 0.19 0.19 0.18 0.18 0.18 0.17 0.17 0.16 0.15
0.09 0.09 0.08 0.08 0.08 0.08 0.08 0.08 0.08 0.08 0.08 0.08 0.08 0.09 0.10 0.10 0.10 0.10 0.10 0.09 0.08 0.08 0.09 0.09 0.09 0.10 0.10 0.11 0.12 0.12 0.12 0.13 0.13 0.13 0.13 0.15 0.15 0.16 0.16 0.16 0.16 0.16 0.16 0.17 0.17 0.17 0.16 0.16 0.17 0.16 0.17 0.17 0.17 0.18 0.18 0.18 0.18 0.18 0.17 0.17 0.17 0.17 0.17
0.08 0.08 0.07 0.07 0.07 0.07 0.07 0.07 0.07 0.07 0.07 0.07 0.07 0.08 0.09 0.09 0.09 0.09 0.09 0.08 0.08 0.08 0.08 0.08 0.09 0.09 0.10 0.10 0.10 0.10 0.10 0.10 0.10 0.11 0.11 0.11 0.11 0.12 0.13 0.13 0.14 0.14 0.14 0.15 0.15 0.15 0.15 0.15 0.16 0.16 0.16 0.16 0.17 0.17 0.18 0.18 0.18 0.17 0.17 0.16 0.16 0.16 0.16
0.07 0.07 0.07 0.06 0.06 0.06 0.07 0.07 0.07 0.07 0.07 0.07 0.07 0.07 0.08 0.08 0.08 0.08 0.08 0.07 0.07 0.07 0.07 0.07 0.08 0.08 0.08 0.08 0.09 0.09 0.09 0.09 0.09 0.09 0.09 0.09 0.09 0.09 0.10 0.10 0.11 0.12 0.12 0.12 0.12 0.13 0.13 0.14 0.14 0.15 0.15 0.16 0.16 0.17 0.17 0.17 0.17 0.17 0.16 0.16 0.16 0.16 0.16
0.07 0.07 0.07 0.06 0.06 0.06 0.06 0.06 0.06 0.06 0.06 0.06 0.07 0.07 0.08 0.07 0.08 0.07 0.07 0.07 0.07 0.07 0.07 0.07 0.07 0.07 0.07 0.07 0.07 0.07 0.08 0.08 0.08 0.08 0.08 0.08 0.09 0.09 0.09 0.08 0.08 0.09 0.10 0.10 0.11 0.11 0.12 0.13 0.13 0.14 0.14 0.15 0.15 0.15 0.15 0.15 0.15 0.15 0.14 0.15 0.14 0.14 0.14
0.07 0.07 0.06 0.06 0.06 0.06 0.06 0.06 0.06 0.06 0.06 0.06 0.07 0.07 0.07 0.07 0.07 0.07 0.07 0.06 0.06 0.06 0.06 0.06 0.06 0.06 0.06 0.07 0.07 0.07 0.07 0.07 0.07 0.08 0.08 0.08 0.08 0.08 0.08 0.08 0.09 0.08 0.08 0.08 0.10 0.10 0.11 0.12 0.12 0.13 0.13 0.13 0.13 0.13 0.14 0.14 0.14 0.13 0.13 0.13 0.13 0.13 0.12
0.07 0.06 0.06 0.06 0.06 0.06 0.05 0.05 0.06 0.06 0.06 0.07 0.07 0.07 0.07 0.07 0.07 0.06 0.06 0.06 0.06 0.06 0.06 0.06 0.06 0.06 0.06 0.06 0.06 0.06 0.06 0.06 0.07 0.07 0.07 0.07 0.07 0.07 0.08 0.08 0.08 0.08 0.08 0.08 0.08 0.08 0.09 0.10 0.11 0.11 0.12 0.12 0.12 0.12 0.12 0.13 0.13 0.13 0.12 0.12 0.12 0.11 0.11
0.07 0.07 0.06 0.06 0.06 0.05 0.05 0.05 0.05 0.06 0.07 0.07 0.07 0.07 0.06 0.06 0.06 0.06 0.05 0.05 0.05 0.05 0.05 0.05 0.05 0.05 0.05 0.05 0.05 0.05 0.05 0.05 0.05 0.06 0.06 0.06 0.07 0.07 0.07 0.07 0.07 0.07 0.07 0.07 0.08 0.08 0.08 0.08 0.08 0.09 0.10 0.10 0.11 0.11 0.11 0.12 0.12 0.12 0.12 0.11 0.11 0.11 0.11
0.07 0.07 0.06 0.06 0.06 0.06 0.05 0.05 0.06 0.06 0.07 0.07 0.07 0.06 0.06 0.06 0.06 0.05 0.05 0.04 0.04 0.04 0.04 0.04 0.04 0.04 0.04 0.04 0.04 0.04 0.04 0.04 0.04 0.04 0.05 0.05 0.05 0.06 0.06 0.06 0.07 0.07 0.07 0.07 0.07 0.07 0.07 0.07 0.08 0.08 0.08 0.08 0.09 0.09 0.10 0.10 0.10 0.10 0.11 0.10 0.10 0.10 0.10
0.07 0.07 0.06 0.06 0.06 0.06 0.06 0.06 0.06 0.05 0.06 0.06 0.06 0.06 0.05 0.05 0.05 0.05 0.04 0.04 0.03 0.03 0.03 0.03 0.03 0.03 0.03 0.03 0.03 0.03 0.03 0.04 0.04 0.04 0.04 0.04 0.04 0.04 0.05 0.05 0.05 0.06 0.06 0.07 0.07 0.07 0.07 0.07 0.07 0.07 0.07 0.07 0.08 0.08 0.08 0.09 0.09 0.10 0.10 0.09 0.09 0.09 0.09
0.06 0.06 0.06 0.06 0.06 0.06 0.05 0.05 0.05 0.05 0.06 0.06 0.05 0.05 0.05 0.05 0.04 0.04 0.04 0.03 0.03 0.03 0.03 0.03 0.03 0.03 0.03 0.03 0.03 0.03 0.03 0.03 0.03 0.03 0.03 0.03 0.03 0.04 0.04 0.04 0.04 0.05 0.05 0.05 0.06 0.06 0.06 0.07 0.07 0.07 0.07 0.07 0.07 0.07 0.08 0.08 0.08 0.08 0.08 0.08 0.08 0.08 0.08
0.06 0.06 0.06 0.06 0.05 0.05 0.05 0.05 0.05 0.05 0.05 0.05 0.05 0.04 0.04 0.04 0.04 0.03 0.03 0.03 0.03 0.03 0.03 0.03 0.03 0.03 0.03 0.03 0.03 0.03 0.03 0.03 0.03 0.03 0.03 0.03 0.03 0.03 0.03 0.04 0.04 0.04 0.04 0.04 0.05 0.05 0.05 0.06 0.06 0.06 0.07 0.07 0.07 0.07 0.07 0.07 0.07 0.08 0.08 0.08 0.07 0.08 0.08
0.05 0.05 0.05 0.05 0.05 0.05 0.05 0.04 0.04 0.04 0.04 0.04 0.04 0.04 0.04 0.03 0.03 0.03 0.03 0.03 0.03 0.03 0.03 0.03 0.03 0.03 0.03 0.03 0.03 0.03 0.03 0.03 0.03 0.03 0.03 0.03 0.03 0.03 0.03 0.03 0.03 0.03 0.04 0.04 0.04 0.04 0.04 0.05 0.05 0.05 0.05 0.06 0.06 0.07 0.07 0.07 0.07 0.07 0.07 0.07 0.07 0.07 0.07
0.05 0.05 0.05 0.04 0.04 0.04 0.04 0.04 0.04 0.04 0.04 0.04 0.04 0.03 0.03 0.03 0.03 0.03 0.03 0.03 0.03 0.03 0.02 0.02 0.02 0.02 0.02 0.02 0.02 0.02 0.03 0.03 0.03 0.03 0.03 0.03 0.03 0.03 0.03 0.03 0.03 0.03 0.03 0.03 0.03 0.03 0.04 0.04 0.04 0.04 0.05 0.05 0.05 0.05 0.06 0.06 0.07 0.07 0.07 0.07 0.07 0.07 0.07
0.04 0.04 0.04 0.04 0.04 0.04 0.04 0.04 0.04 0.04 0.04 0.04 0.04 0.03 0.03 0.03 0.03 0.02 0.02 0.02 0.02 0.02 0.02 0.02 0.02 0.02 0.02 0.02 0.02 0.02 0.02 0.02 0.02 0.03 0.03 0.03 0.03 0.03 0.03 0.03 0.03 0.03 0.03 0.03 0.03 0.03 0.03 0.03 0.03 0.04 0.04 0.04 0.04 0.05 0.05 0.05 0.06 0.06 0.06 0.07 0.07 0.07 0.07
Wind_Speed
47 47 48 48 49 49 50 51 51 51 52 52 53 54 54 55 55 56 56 56 56 56 56 56 57 57 57 57 57 57 57 58 58 59 59 59 60 60 60 60 60 60 60 59 59 58 58 57 57 58 58 59 59 59 59 60 60 60 60 60 60 60 61
48 48 49 49 50 50 50 51 51 52 52 53 54 54 55 55 55 56 56 56 57 57 57 57 58 58 58 58 58 58 58 59 59 59 60 60 61 61 61 61 61 61 61 61 60 60 60 59 59 60 60 60 60 60 60 61 61 61 61 61 61 61 61
50 50 51 51 51 51 52 52 53 53 54 54 55 55 55 55 56 56 57 57 58 58 58 58 59 59 59 59 59 60 60 60 60 60 61 62 62 62 62 62 62 62 62 62 61 61 61 61 61 61 61 61 61 61 61 62 62 62 62 62 62 62 61
52 53 53 53 53 53 53 54 54 54 55 55 56 56 56 56 56 57 57 58 58 58 59 59 60 60 60 60 61 61 61 61 62 62 62 63 63 63 63 63 63 64 64 63 63 62 62 62 62 62 62 62 62 62 62 62 62 62 62 62 62 62 62
53 53 54 54 54 54 54 54 54 55 55 55 56 56 57 57 57 58 58 59 59 59 60 60 61 61 61 62 62 63 62 62 63 63 63 64 64 64 64 64 64 64 64 64 64 63 62 62 62 62 62 62 62 61 62 62 62 61 61 61 62 62 62
53 53 53 54 54 54 54 54 54 54 55 55 55 56 56 57 57 58 59 59 60 60 60 61 62 62 62 63 63 64 63 64 64 64 64 65 64 64 64 64 64 64 64 64 64 64 62 62 62 61 61 61 61 61 61 61 61 61 61 61 61 61 61
52 52 52 53 53 53 53 53 53 54 54 54 55 55 56 57 57 58 59 60 60 61 61 62 62 63 63 63 64 64 64 64 64 64 65 65 64 64 63 63 63 63 63 63 63 63 62 62 62 61 61 61 61 61 61 61 61 61 61 61 61 61 61
50 50 50 51 51 51 52 52 52 53 53 53 54 55 55 56 57 58 58 59 60 61 61 62 62 63 63 63 64 64 64 64 64 64 64 64 63 63 63 63 63 62 62 62 63 62 62 61 61 61 60 60 60 60 60 60 60 61 61 61 61 62 61
49 49 49 50 50 50 51 51 51 52 52 53 53 54 54 55 56 56 57 58 59 60 60 61 62 62 63 63 64 64 64 64 64 64 63 63 63 62 62 62 62 62 62 62 62 61 61 60 60 60 60 60 60 60 60 59 60 61 61 61 61 62 62
49 49 49 49 49 50 50 50 51 51 52 52 53 53 53 54 54 55 56 57 57 58 59 59 60 61 62 63 63 64 64 64 64 64 64 63 62 62 62 62 62 62 62 61 61 61 60 60 60 60 60 60 60 60 60 59 60 60 60 59 60 61 62
48 48 48 48 48 49 49 49 49 50 51 52 52 53 53 54 54 54 54 55 55 56 57 58 58 59 60 61 61 62 62 63 63 63 63 63 63 62 62 62 61 61 61 61 60 60 60 60 60 60 59 60 60 59 59 59 59 59 59 59 59 60 60
47 47 47 47 47 47 47 48 48 49 49 50 50 51 51 52 52 53 53 53 54 55 55 56 57 57 58 58 59 59 59 60 61 61 62 62 62 62 62 62 62 61 61 60 60 60 60 60 60 59 59 59 59 58 58 58 58 59 59 59 59 59 59
44 45 45 45 46 46 46 46 47 47 48 48 48 49 49 50 51 51 52 53 53 54 55 55 56 56 56 57 57 57 58 58 59 59 60 61 61 62 63 63 63 63 62 61 61 60 61 60 59 59 59 58 58 57 57 57 58 58 58 58 59 59 58
42 43 43 43 44 44 45 45 46 46 47 47 47 47 48 49 50 50 51 52 53 53 54 55 55 56 56 56 57 57 57 57 58 58 58 59 59 60 61 62 62 62 62 62 61 61 61 60 59 59 59 58 57 57 57 57 58 58 58 58 58 58 58
40 40 41 41 41 42 42 43 44 45 45 46 47 47 47 48 49 50 50 51 52 53 53 54 55 55 56 56 56 56 57 57 57 57 58 58 58 58 58 59 60 60 61 61 61 61 60 59 59 59 58 57 57 58 58 57 57 57 57 57 58 57 57
37 38 38 38 38 39 39 40 41 41 42 43 44 45 45 46 46 47 48 49 49 50 51 51 52 53 53 54 54 54 55 55 56 56 56 57 57 56 57 57 57 58 59 59 60 60 60 59 59 59 58 58 58 58 57 57 56 57 56 56 56 56 56
35 35 35 36 36 36 36 37 38 38 39 40 40 41 41 42 42 43 44 44 45 46 46 47 47 48 49 49 49 50 51 52 52 53 54 54 55 55 55 55 55 55 57 58 58 59 59 59 59 59 59 58 58 58 57 56 56 56 56 55 55 55 54
33 33 33 33 33 34 34 35 35 36 36 37 38 38 38 39 39 40 41 41 41 42 42 43 44 44 45 45 46 46 47 48 48 49 50 51 52 53 53 53 52 53 54 55 56 56 57 58 58 58 58 58 58 58 57 56 56 56 54 54 55 54 53
30 30 30 31 31 32 32 32 33 34 35 35 36 36 36 37 37 38 39 39 39 39 40 40 41 42 42 43 44 44 45 45 45 46 47 48 49 50 51 51 50 51 51 52 52 53 54 54 55 55 55 55 56 56 56 56 55 55 54 54 54 53 52
28 28 28 29 29 30 30 31 32 32 33 34 34 35 35 35 35 36 36 36 36 37 38 38 39 39 40 41 42 43 43 44 44 44 44 45 46 47 48 49 49 50 50 50 50 50 51 51 51 52 52 53 54 54 55 54 54 54 54 54 54 53 53
26 26 27 27 28 28 29 30 30 31 32 33 33 34 34 34 34 35 35 35 35 36 37 37 38 38 39 39 40 41 42 42 43 43 43 43 43 44 44 45 46 48 48 49 49 49 49 49 49 50 50 51 52 53 53 53 53 53 53 53 53 53 53
25 26 26 26 27 28 28 29 30 31 32 33 33 34 34 34 35 35 36 36 37 37 37 37 38 38 39 39 39 39 40 40 41 41 41 42 42 42 43 43 43 44 46 47 48 48 48 48 49 49 49 50 50 51 52 53 53 53 53 53 53 53 53
25 25 26 27 27 28 29 30 31 32 33 34 35 35 36 36 37 37 37 37 38 38 38 38 39 39 40 40 40 40 40 40 40 41 41 42 43 43 43 43 43 43 43 45 46 47 48 48 48 49 49 49 49 50 51 52 53 53 53 53 53 54 53
26 26 27 28 29 29 30 31 32 33 34 35 36 37 38 38 38 38 38 38 39 39 39 40 40 41 41 41 41 41 42 42 42 42 42 43 43 43 43 43 43 43 43 43 44 45 46 47 48 48 48 48 49 49 49 51 51 52 53 52 52 53 52
26 27 27 28 29 30 31 32 33 34 35 36 37 38 38 38 37 38 38 39 40 40 41 42 43 43 43 43 43 43 42 42 42 43 43 43 43 44 44 44 44 44 44 44 44 45 45 46 47 48 48 48 48 48 49 49 50 51 52 52 52 52 52
27 27 27 29 30 31 32 33 34 35 36 37 37 37 37 37 38 38 39 40 41 42 43 44 44 44 44 44 44 44 44 43 43 43 43 43 43 44 44 44 45 45 45 46 46 46 46 46 46 47 48 48 49 49 49 49 50 50 51 52 52 52 52
28 27 28 30 32 33 34 34 35 35 36 37 37 37 37 38 39 39 40 41 41 42 43 43 43 43 43 43 44 44 44 44 44 44 44 44 44 44 44 44 45 45 46 46 47 47 48 48 48 48 48 48 49 50 50 50 50 51 51 52 52 52 53
28 28 30 32 33 34 35 35 35 36 37 37 37 37 38 39 39 40 40 41 41 41 41 41 41 41 41 41 41 41 42 42 43 44 44 44 45 45 45 45 45 46 46 47 47 48 48 49 49 50 50 50 50 50 50 50 51 51 52 52 52 53 53
29 30 32 33 34 35 35 35 36 37 37 38 38 38 38 39 39 39 39 40 40 39 39 39 38 38 38 38 38 39 39 40 41 42 42 43 44 45 45 46 46 46 47 47 48 48 48 49 49 50 51 51 52 52 52 52 52 52 52 52 53 54 54
31 32 33 34 34 35 35 35 36 37 37 37 37 37 37 38 38 37 37 38 37 37 36 36 36 36 36 36 37 37 37 38 39 40 40 41 42 43 44 45 45 46 47 47 48 48 48 49 49 50 50 51 52 53 53 53 53 53 53 53 53 53 54
32 33 33 34 34 34 34 35 36 37 36 36 35 35 36 36 35 35 35 35 34 33 33 33 33 33 33 34 34 35 35 36 37 37 38 39 40 41 42 43 44 45 46 47 47 48 48 48 49 49 50 51 51 52 52 53 54 54 53 54 54 53 53
32 32 33 33 33 33 34 35 35 35 34 33 33 33 33 33 33 32 32 32 31 30 30 30 31 31 31 31 32 32 33 34 34 35 36 37 38 39 40 41 42 43 44 45 45 46 47 47 48 48 49 50 50 51 51 52 53 53 54 54 53 53 53
31 32 32 32 32 33 33 33 33 33 32 31 31 31 31 30 30 30 29 29 29 29 29 29 29 29 30 30 31 31 32 32 33 33 34 34 35 36 37 38 39 41 41 42 43 44 45 45 46 47 47 48 49 50 50 50 51 52 53 53 52 52 53
30 31 31 31 31 31 31 31 30 30 29 29 29 29 29 28 28 28 28 28 27 27 27 28 28 29 29 29 30 30 31 32 32 33 33 34 34 35 36 37 37 38 39 40 41 42 43 44 45 45 46 46 47 48 49 49 49 50 50 51 51 51 51
30 30 30 30 29 29 28 28 27 27 27 27 27 27 27 27 26 26 26 26 26 27 27 27 28 28 29 29 30 30 31 31 32 32 33 33 34 34 35 36 36 37 37 38 39 40 41 42 43 44 45 45 46 47 47 48 49 49 49 49 50 50 49
29 28 28 27 26 26 25 25 25 25 25 25 25 25 25 25 25 25 26 26 26 27 27 27 28 28 29 29 30 30 31 31 32 32 32 33 33 34 34 35 35 36 36 37 38 39 39 40 41 42 43 44 45 46 46 47 48 48 49 49 49 49 49
Wind_Direction
271 270 270 269 268 268 268 268 267 266 266 265 265 264 263 263 262 262 262 262 262 262 262 263 263 263 263 263 263 263 263 263 263 263 263 263 263 263 263 263 263 264 266 266 265 265 264 264 263 262 262 262 261 261 260 260 260 260 259 259 259 259 259
271 271 271 270 270 269 269 269 268 268 267 266 266 265 265 264 263 263 263 262 262 263 263 263 263 263 263 263 263 264 264 264 263 263 263 263 263 263 263 263 263 264 265 265 265 264 264 264 263 262 262 261 261 261 260 259 259 259 259 258 258 258 258
272 271 271 271 271 270 270 269 269 269 268 267 266 266 265 265 265 264 263 263 263 263 263 263 263 263 264 264 263 264 264 264 264 263 263 263 263 263 263 263 263 263 264 265 265 264 264 263 263 262 262 261 261 260 260 259 259 259 258 258 258 258 258
273 272 272 271 271 271 270 270 270 269 269 268 268 267 266 266 265 264 264 264 264 264 264 264 264 264 264 264 264 264 264 264 264 264 263 263 263 263 264 264 263 263 264 264 265 264 264 263 263 262 262 261 261 260 260 259 259 259 258 258 258 258 258
273 273 273 272 272 271 271 270 270 270 270 269 269 268 267 266 265 265 265 264 264 264 264 264 264 265 264 264 264 264 264 264 264 264 263 263 264 264 264 264 263 263 263 263 264 264 264 263 263 262 262 261 260 260 259 259 259 259 258 258 258 258 257
274 274 273 273 273 272 271 271 270 270 269 269 269 268 267 267 266 266 265 265 265 265 265 265 265 265 265 264 264 264 264 264 264 264 264 264 264 264 264 263 263 263 262 262 263 263 263 262 262 261 261 260 259 259 259 258 258 258 258 258 258 258 258
275 274 274 274 273 273 272 272 271 270 269 269 269 268 268 267 267 267 266 266 266 266 265 265 265 265 265 265 265 265 265 265 265 265 264 264 264 264 263 263 263 262 262 262 262 262 262 262 261 260 260 260 259 259 258 258 258 258 258 258 258 258 257
275 274 274 274 273 273 272 272 271 271 270 269 269 269 268 268 268 268 268 267 267 267 267 266 266 266 265 265 265 266 265 265 265 265 264 264 264 264 263 263 262 262 261 261 261 261 261 261 261 260 260 260 259 258 258 258 257 257 257 257 257 257 257
274 274 274 273 273 273 273 272 272 272 272 271 271 270 270 270 269 269 269 269 268 268 268 267 267 266 266 266 266 266 266 265 265 265 264 264 264 263 262 262 262 261 260 260 260 261 261 260 260 260 259 259 258 258 258 258 257 257 257 257 257 257 257
275 275 274 274 274 274 273 273 273 273 273 273 272 272 271 271 271 270 270 270 269 269 268 268 268 267 267 267 266 266 266 265 265 264 264 264 263 262 261 261 260 260 260 260 260 260 260 260 260 260 259 258 258 258 257 257 256 256 256 256 256 257 257
276 276 275 275 275 275 274 274 274 274 275 274 274 273 272 272 272 271 271 271 270 270 270 269 269 269 268 268 267 267 266 266 265 264 264 263 262 261 261 260 260 260 260 260 260 260 260 259 260 260 259 258 258 257 257 256 256 256 256 255 256 257 257
277 277 276 276 276 275 275 274 274 275 275 275 275 274 273 272 272 272 272 272 271 271 271 271 270 270 269 269 268 267 267 266 265 264 263 263 262 261 260 260 259 260 260 259 259 260 259 259 260 259 258 258 258 257 256 256 255 255 255 255 256 257 258
278 278 277 277 277 276 276 275 275 276 276 275 275 275 274 273 273 273 272 272 272 271 271 271 271 270 269 269 268 268 267 266 266 265 264 263 262 261 260 259 259 259 259 259 259 259 259 259 259 259 259 258 258 257 256 255 255 255 255 255 256 257 258
279 279 278 278 277 277 276 276 276 277 277 276 276 276 275 274 274 273 273 273 272 272 271 271 271 270 270 269 269 268 267 266 266 265 265 264 263 262 261 260 260 259 259 259 259 259 259 259 259 259 259 259 257 256 256 256 256 255 255 255 256 257 257
280 280 279 279 279 278 278 278 278 279 278 278 277 277 276 276 275 275 274 274 274 273 273 272 272 271 271 270 269 269 268 267 266 266 265 264 264 263 262 261 261 260 260 259 259 259 259 259 259 259 259 258 257 257 257 257 256 256 256 256 257 257 257
282 281 281 281 281 280 280 280 281 281 281 280 280 279 278 278 277 277 276 276 275 275 274 274 274 273 272 272 271 270 270 268 267 266 265 264 264 263 263 262 262 261 260 260 259 259 259 259 259 259 258 257 257 257 257 256 256 256 256 256 257 257 257
283 283 283 282 282 282 282 282 283 284 284 283 283 282 281 280 280 279 279 278 278 277 276 276 275 275 274 273 272 271 271 269 268 266 265 264 263 263 263 262 262 261 260 260 259 259 259 259 258 258 257 256 256 256 255 255 255 255 255 255 256 257 257
285 284 284 283 283 284 284 284 285 286 286 285 285 284 283 282 282 282 281 280 279 279 278 277 277 276 275 273 273 272 271 270 268 267 266 264 263 263 262 262 261 261 260 259 259 259 258 258 257 257 256 256 255 254 254 254 254 255 254 254 255 256 256
286 286 285 285 285 286 286 286 286 287 288 288 288 287 285 284 284 283 283 282 281 280 280 279 278 277 276 275 274 273 272 271 269 268 267 266 264 263 262 262 262 261 260 260 259 259 259 258 258 257 256 255 254 253 253 254 254 254 254 254 255 256 255
288 288 288 288 288 288 288 288 288 290 291 291 290 289 288 287 286 286 285 284 284 283 282 281 280 279 278 277 275 273 272 271 270 269 268 267 266 264 264 263 262 261 261 260 260 259 259 258 258 257 257 256 254 253 253 253 254 254 254 254 255 255 255
291 292 291 291 290 290 291 291 291 292 293 293 293 292 291 289 289 288 287 286 286 285 284 283 282 280 280 278 277 275 273 272 270 270 268 268 268 268 267 265 263 262 261 260 260 259 259 258 258 257 257 256 255 254 253 253 253 253 254 254 254 255 255
294 294 294 293 293 293 293 294 294 294 295 295 294 294 293 291 290 289 288 287 287 286 285 284 283 282 281 280 278 277 275 273 272 271 269 269 269 270 269 267 265 264 262 260 259 259 258 258 257 257 257 257 256 255 254 253 253 253 254 254 255 255 255
297 297 296 296 295 295 296 296 296 296 296 296 295 295 294 292 292 291 289 288 287 286 285 284 283 281 281 280 278 277 276 275 273 271 270 270 270 270 269 268 266 265 264 262 261 259 259 258 258 257 257 257 257 256 255 254 254 253 254 254 255 255 255
298 297 297 297 297 297 298 298 298 297 297 297 297 296 295 294 293 292 290 289 288 287 286 285 283 282 281 280 278 277 276 275 273 272 271 271 270 269 268 267 266 266 265 264 262 261 260 259 259 258 258 257 257 257 256 255 254 254 253 254 254 254 254
298 298 298 298 299 300 300 300 299 299 298 298 298 297 296 295 294 293 292 291 289 288 287 286 284 283 282 280 278 277 275 274 273 272 272 271 270 269 268 267 266 265 265 264 263 262 261 260 260 259 259 258 258 257 256 255 255 254 253 253 253 253 253
300 299 299 300 301 301 301 301 300 300 299 299 299 298 297 296 295 294 293 292 290 289 288 287 285 284 282 280 279 277 275 274 273 272 271 271 270 268 267 267 266 265 265 264 263 262 261 261 260 260 259 259 258 257 257 256 255 254 253 253 253 253 253
302 301 300 301 301 302 302 301 301 301 301 301 300 298 297 297 295 294 293 292 291 290 289 288 286 285 283 281 279 277 275 273 273 272 271 270 269 268 268 267 267 266 265 264 264 263 262 261 261 260 259 258 258 257 257 257 256 255 254 253 253 253 253
302 301 301 301 302 302 302 301 301 302 302 301 300 299 298 297 296 294 294 293 292 291 290 289 287 286 284 282 280 278 276 274 273 272 271 270 269 269 268 268 267 266 266 265 265 264 263 262 261 260 259 258 258 257 257 257 256 256 255 254 253 253 253
302 302 302 303 303 303 302 302 302 303 303 302 301 301 300 299 297 296 296 295 294 293 291 290 289 288 286 285 283 281 279 277 275 274 272 271 270 270 269 268 268 267 267 266 266 265 264 263 262 261 259 258 257 257 257 257 256 255 255 255 254 254 254
304 304 304 304 304 304 303 303 304 304 304 304 304 304 302 300 300 299 299 298 296 295 293 293 291 290 288 287 285 283 281 280 278 276 275 274 272 271 270 269 269 268 267 267 266 265 265 264 263 261 260 259 258 257 257 256 255 255 255 255 254 255 255
307 307 306 306 305 305 305 306 306 306 306 306 306 306 304 303 303 303 302 301 299 297 297 296 294 292 291 289 287 285 284 282 280 279 277 276 274 273 272 270 270 269 268 267 266 265 265 264 263 262 261 260 259 258 257 256 255 255 255 255 255 255 255
309 309 309 309 308 308 308 308 309 309 308 308 308 308 308 307 306 306 306 305 302 301 300 299 297 295 294 292 290 289 287 285 284 282 280 278 277 275 274 273 271 270 269 268 267 266 265 265 264 263 262 261 260 259 258 257 255 254 254 254 255 255 254
311 311 311 311 311 311 311 311 312 312 311 311 311 311 312 311 310 310 310 308 306 305 304 302 301 299 298 296 294 292 291 289 287 285 283 282 280 278 276 275 273 272 270 269 268 267 266 265 264 264 263 262 260 259 258 258 256 255 254 254 254 255 254
313 313 313 313 313 314 314 315 315 315 315 315 316 316 316 315 313 313 313 312 311 310 308 307 305 303 301 299 297 295 293 292 290 288 286 284 283 281 279 277 276 274 273 271 270 269 267 266 265 264 263 262 261 260 259 258 257 256 255 254 254 254 253
314 315 315 315 316 317 318 318 319 319 320 320 321 321 320 319 318 318 317 317 316 314 312 310 308 306 304 302 300 298 296 294 292 290 288 286 285 283 282 280 278 277 275 274 272 271 269 268 267 266 264 263 262 261 260 259 258 257 256 255 254 253 253
315 315 316 317 318 320 321 322 323 324 325 325 325 326 325 324 324 323 323 322 320 318 317 314 312 310 307 305 303 300 298 296 294 292 290 288 286 285 283 282 280 279 277 276 274 272 271 270 268 267 266 264 263 261 260 259 258 257 256 255 255 254 254